| time (UTC) | temp C | wind direction | speed KPH | gust KPH | rain 1hr cm | rain 24hr cm | rain mn cm | humidity % | barometer mb |
| 20260508191528 | 22 | 289 | 1.6 | 11.3 | 0.00 | 0.00 | 0.00 | 36 | 1010.8 |
| 20260508190027 | 22 | 96 | 1.6 | 6.4 | 0.00 | 0.00 | 0.00 | 37 | 1010.9 |
| 20260508184520 | 22 | 15 | 1.6 | 4.8 | 0.00 | 0.00 | 0.00 | 38 | 1011.1 |
| 20260508183017 | 21 | 40 | 3.2 | 8.0 | 0.00 | 0.00 | 0.00 | 40 | 1011.2 |
| 20260508181517 | 21 | 101 | 0.0 | 4.8 | 0.00 | 0.00 | 0.00 | 41 | 1011.4 |
| 20260508180017 | 20 | 56 | 1.6 | 3.2 | 0.00 | 0.00 | 0.00 | 45 | 1011.5 |
| 20260508174511 | 19 | 124 | 1.6 | 4.8 | 0.00 | 0.00 | 0.00 | 51 | 1011.9 |
| 20260508173008 | 18 | 275 | 0.0 | 4.8 | 0.00 | 0.00 | 0.00 | 52 | 1012.1 |
| 20260508171501 | 17 | 257 | 0.0 | 4.8 | 0.00 | 0.00 | 0.00 | 54 | 1012.3 |
| 20260508170100 | 17 | 280 | 0.0 | 4.8 | 0.00 | 0.00 | 0.00 | 58 | 1012.3 |
| 20260508164555 | 16 | 280 | 0.0 | 3.2 | 0.00 | 0.00 | 0.00 | 61 | 1012.6 |
| 20260508163051 | 15 | 41 | 0.0 | 6.4 | 0.00 | 0.00 | 0.00 | 63 | 1012.8 |
| 20260508161549 | 14 | 70 | 0.0 | 4.8 | 0.00 | 0.00 | 0.00 | 65 | 1012.9 |
| 20260508160105 | 14 | 86 | 0.0 | 1.6 | 0.00 | 0.00 | 0.00 | 66 | 1013.1 |
| 20260508154543 | 12 | 77 | 0.0 | 3.2 | 0.00 | 0.00 | 0.00 | 72 | 1013.2 |
| 20260508153045 | 12 | 68 | 0.0 | 1.6 | 0.00 | 0.00 | 0.00 | 73 | 1013.3 |
| 20260508151538 | 11 | 58 | 0.0 | 3.2 | 0.00 | 0.00 | 0.00 | 75 | 1013.5 |
| 20260508150037 | 10 | 82 | 0.0 | 1.6 | 0.00 | 0.00 | 0.00 | 80 | 1013.6 |
| 20260508144535 | 9 | 123 | 0.0 | 1.6 | 0.00 | 0.00 | 0.00 | 82 | 1013.7 |
| 20260508143042 | 8 | 253 | 0.0 | 1.6 | 0.00 | 0.00 | 0.00 | 86 | 1013.6 |
| 20260508141547 | 7 | 210 | 0.0 | 0.0 | 0.00 | 0.00 | 0.00 | 88 | 1013.7 |
| 20260508140033 | 6 | 286 | 0.0 | 1.6 | 0.00 | 0.00 | 0.00 | 90 | 1013.6 |
| 20260508134534 | 5 | 157 | 0.0 | 0.0 | 0.00 | 0.00 | 0.00 | 92 | 1013.6 |
| 20260508133030 | 5 | 211 | 0.0 | 1.6 | 0.00 | 0.00 | 0.00 | 92 | 1013.5 |
| 20260508131529 | 4 | 272 | 0.0 | 1.6 | 0.00 | 0.00 | 0.00 | 94 | 1013.5 |
| 20260508130028 | 3 | 203 | 0.0 | 1.6 | 0.00 | 0.00 | 0.00 | 93 | 1013.3 |
| 20260508124526 | 3 | 238 | 0.0 | 0.0 | 0.00 | 0.00 | 0.00 | 93 | 1013.1 |
| 20260508123025 | 3 | 238 | 0.0 | 1.6 | 0.00 | 0.00 | 0.00 | 92 | 1013.1 |
| 20260508121548 | 3 | 75 | 0.0 | 1.6 | 0.00 | 0.00 | 0.00 | 94 | 1012.9 |
| 20260508120022 | 3 | 139 | 0.0 | 1.6 | 0.00 | 0.00 | 0.00 | 92 | 1012.9 |
| 20260508114519 | 4 | 108 | 0.0 | 0.0 | 0.00 | 0.00 | 0.00 | 94 | 1013.0 |
| 20260508113018 | 4 | 121 | 0.0 | 1.6 | 0.00 | 0.00 | 0.00 | 94 | 1013.1 |
| 20260508111516 | 5 | 103 | 0.0 | 1.6 | 0.00 | 0.00 | 0.00 | 89 | 1012.8 |
| 20260508110015 | 4 | 95 | 0.0 | 1.6 | 0.00 | 0.00 | 0.00 | 91 | 1012.7 |
| 20260508104613 | 5 | 206 | 0.0 | 3.2 | 0.00 | 0.00 | 0.00 | 93 | 1012.6 |
| 20260508103015 | 4 | 113 | 0.0 | 1.6 | 0.00 | 0.00 | 0.00 | 91 | 1012.6 |
| 20260508101510 | 5 | 158 | 0.0 | 0.0 | 0.00 | 0.00 | 0.00 | 90 | 1012.6 |
| 20260508100007 | 5 | 158 | 0.0 | 0.0 | 0.00 | 0.00 | 0.00 | 92 | 1012.4 |
| 20260508094505 | 5 | 252 | 0.0 | 1.6 | 0.00 | 0.00 | 0.00 | 92 | 1012.3 |
| 20260508093001 | 5 | 190 | 0.0 | 1.6 | 0.00 | 0.00 | 0.00 | 86 | 1012.3 |
| 20260508091500 | 5 | 193 | 0.0 | 0.0 | 0.00 | 0.00 | 0.00 | 90 | 1012.2 |
| 20260508090059 | 6 | 194 | 0.0 | 0.0 | 0.00 | 0.00 | 0.00 | 89 | 1012.2 |
| 20260508084557 | 6 | 245 | 0.0 | 1.6 | 0.00 | 0.00 | 0.00 | 88 | 1012.0 |
| 20260508083137 | 6 | 162 | 0.0 | 3.2 | 0.00 | 0.00 | 0.00 | 87 | 1012.0 |
| 20260508081556 | 6 | 151 | 0.0 | 1.6 | 0.00 | 0.00 | 0.00 | 87 | 1011.8 |
| 20260508080059 | 7 | 204 | 0.0 | 3.2 | 0.00 | 0.00 | 0.00 | 84 | 1011.8 |
| 20260508074547 | 8 | 299 | 1.6 | 4.8 | 0.00 | 0.00 | 0.00 | 83 | 1011.9 |
| 20260508073050 | 7 | 161 | 0.0 | 1.6 | 0.00 | 0.00 | 0.00 | 81 | 1011.9 |
| 20260508071544 | 9 | 129 | 1.6 | 6.4 | 0.00 | 0.00 | 0.00 | 81 | 1011.8 |
| 20260508070044 | 8 | 97 | 0.0 | 0.0 | 0.00 | 0.00 | 0.00 | 84 | 1011.7 |
| 20260508064601 | 8 | 126 | 0.0 | 1.6 | 0.00 | 0.03 | 0.00 | 82 | 1011.5 |
| 20260508063038 | 8 | 139 | 0.0 | 1.6 | 0.00 | 0.03 | 0.00 | 80 | 1011.5 |
| 20260508061532 | 10 | 158 | 0.0 | 3.2 | 0.00 | 0.03 | 0.00 | 77 | 1011.4 |
| 20260508060028 | 10 | 155 | 0.0 | 4.8 | 0.00 | 0.03 | 0.00 | 75 | 1011.3 |
| 20260508054527 | 11 | 103 | 0.0 | 3.2 | 0.00 | 0.08 | 0.03 | 73 | 1011.2 |
| 20260508053027 | 11 | 70 | 1.6 | 4.8 | 0.00 | 0.08 | 0.03 | 71 | 1011.3 |
| 20260508051527 | 12 | 151 | 3.2 | 9.7 | 0.00 | 0.08 | 0.03 | 65 | 1011.2 |
| 20260508050025 | 13 | 86 | 1.6 | 14.5 | 0.00 | 0.08 | 0.03 | 63 | 1011.1 |
| 20260508044524 | 13 | 111 | 6.4 | 12.9 | 0.00 | 0.08 | 0.03 | 63 | 1011.0 |
| 20260508043024 | 13 | 96 | 8.0 | 14.5 | 0.00 | 0.08 | 0.03 | 63 | 1010.7 |
| 20260508041522 | 13 | 105 | 8.0 | 16.1 | 0.00 | 0.08 | 0.03 | 61 | 1010.7 |
| 20260508040022 | 13 | 106 | 6.4 | 12.9 | 0.00 | 0.08 | 0.03 | 62 | 1010.6 |
| 20260508034521 | 15 | 97 | 6.4 | 16.1 | 0.00 | 0.08 | 0.03 | 60 | 1010.5 |
| 20260508033021 | 15 | 98 | 8.0 | 12.9 | 0.00 | 0.08 | 0.03 | 59 | 1010.3 |
| 20260508031520 | 16 | 117 | 3.2 | 9.7 | 0.00 | 0.08 | 0.03 | 58 | 1010.1 |
| 20260508030020 | 16 | 101 | 3.2 | 9.7 | 0.00 | 0.08 | 0.03 | 58 | 1009.9 |
| 20260508024525 | 17 | 193 | 0.0 | 0.0 | 0.00 | 0.08 | 0.03 | 55 | 1009.7 |
| 20260508023030 | 18 | 188 | 0.0 | 0.0 | 0.00 | 0.08 | 0.03 | 48 | 1009.6 |
| 20260508021518 | 21 | 201 | 0.0 | 4.8 | 0.00 | 0.08 | 0.03 | 40 | 1009.7 |
| 20260508020018 | 22 | 199 | 0.0 | 1.6 | 0.00 | 0.08 | 0.03 | 37 | 1009.7 |
| 20260508014519 | 22 | 300 | 0.0 | 4.8 | 0.00 | 0.08 | 0.03 | 37 | 1009.7 |
| 20260508013015 | 22 | 259 | 0.0 | 9.7 | 0.00 | 0.08 | 0.03 | 37 | 1009.6 |
| 20260508011515 | 23 | 214 | 1.6 | 16.1 | 0.00 | 0.08 | 0.03 | 34 | 1009.7 |
| 20260508010014 | 23 | 287 | 1.6 | 8.0 | 0.00 | 0.08 | 0.03 | 33 | 1009.6 |
| 20260508004513 | 23 | 223 | 0.0 | 9.7 | 0.00 | 0.08 | 0.03 | 31 | 1009.6 |
| 20260508003012 | 23 | 305 | 1.6 | 11.3 | 0.00 | 0.08 | 0.03 | 30 | 1009.7 |
| 20260508001511 | 23 | 243 | 4.8 | 14.5 | 0.00 | 0.08 | 0.03 | 28 | 1009.6 |
| 20260508000011 | 24 | 285 | 3.2 | 8.0 | 0.00 | 0.08 | 0.03 | 29 | 1009.6 |
| 20260507234513 | 24 | 205 | 4.8 | 14.5 | 0.00 | 0.08 | 0.03 | 27 | 1009.4 |
| 20260507233009 | 24 | 278 | 3.2 | 11.3 | 0.00 | 0.08 | 0.03 | 27 | 1009.4 |
| 20260507231508 | 24 | 307 | 4.8 | 11.3 | 0.00 | 0.08 | 0.03 | 27 | 1009.5 |
| 20260507230007 | 24 | 270 | 6.4 | 14.5 | 0.00 | 0.08 | 0.03 | 28 | 1009.6 |
| 20260507224513 | 24 | 300 | 8.0 | 17.7 | 0.00 | 0.08 | 0.03 | 30 | 1009.7 |
| 20260507223005 | 24 | 194 | 1.6 | 11.3 | 0.00 | 0.08 | 0.03 | 29 | 1009.8 |
| 20260507221501 | 23 | 257 | 1.6 | 8.0 | 0.00 | 0.08 | 0.03 | 35 | 1009.9 |
| 20260507220001 | 23 | 293 | 0.0 | 4.8 | 0.00 | 0.08 | 0.03 | 35 | 1010.0 |
| 20260507214610 | 23 | 63 | 4.8 | 8.0 | 0.00 | 0.08 | 0.03 | 34 | 1010.2 |
| 20260507213107 | 22 | 309 | 0.0 | 6.4 | 0.00 | 0.08 | 0.03 | 39 | 1010.4 |
| 20260507211555 | 22 | 358 | 0.0 | 4.8 | 0.00 | 0.08 | 0.03 | 40 | 1010.4 |
| 20260507210055 | 22 | 210 | 3.2 | 12.9 | 0.00 | 0.08 | 0.03 | 40 | 1010.5 |
| 20260507204601 | 22 | 109 | 1.6 | 4.8 | 0.00 | 0.08 | 0.03 | 44 | 1010.6 |
| 20260507203052 | 22 | 211 | 1.6 | 8.0 | 0.00 | 0.08 | 0.03 | 39 | 1010.8 |
| 20260507201549 | 22 | 69 | 0.0 | 4.8 | 0.00 | 0.08 | 0.03 | 42 | 1010.7 |
| 20260507200049 | 22 | 37 | 6.4 | 14.5 | 0.00 | 0.08 | 0.03 | 41 | 1010.8 |
| 20260507194547 | 21 | 238 | 1.6 | 8.0 | 0.00 | 0.08 | 0.03 | 40 | 1010.9 |
| 20260507193045 | 21 | 51 | 0.0 | 6.4 | 0.00 | 0.08 | 0.03 | 40 | 1010.9 |